Showing default

EXPLORER 30, 1738

Orbit data source: Space-Track

EXPLORER 30, 1738 is a payload satellite owned by NRL (US) in LEO that was launched on Fri, 19 Nov 1965 UTC via an SCOUT X-4 launch vehicle from the Wallops Island (WLPIS). Payload-class satellites include a variety of spacecraft equipped with specific instruments for various scientific and technological missions. These include communications satellites like Starlink; space stations such as the ISS; scientific satellites like the Hubble; Earth observation satellites from companies like Planet Labs, Umbra, and HawkEye 360; GPS; miniature CubeSats for education and research; and military/defense satellites.

Loading next visibility...
Identifier
1738, 1965-093A
Orbit
LEO
Country
Flag of USUS
Related business
Manufacturer
NRL
Mission
Spacecraft
Bus & Motor
NRL 24", Unknown motor
Mass
57 kg wet, 57 kg dry
Launch date (UTC)
1965-11-19 (60 years ago)
Launch vehicle
SCOUT X-4
Launch site
Wallops Island (WLPIS)
Object type
Payload
Rocket body
Debris
Shape & HBR
Unknown
Radar Cross Section
Medium (>0.1 m² and <1 m²)

Expand to show TLE details & history
Last TLE update: 12 hours ago

TLE from 12 hours ago
0 EXPLORER 30
1  1738U 65093A   25296.10870984  .00000224  00000-0  10541-3 0  9995
2  1738  59.7085 331.3703 0130541 174.4998 185.7511 14.41681354122203
Epoch: 2025-10-23T02:36Z
TLE epoch observation values (Epoch: 2025-10-23T02:36:32.530Z)
Latitude
0.00004°
Longitude
-99.53791°
Altitude
847.101 km
Speed
7.382 km/s
True Right ascension
22h 05m 28s
True Declination
0° 00' 00"
Sunlit
Object was in full shadow at epoch
Visualization orbit readout
Latitude
Unknown
Longitude
Unknown
Altitude
Unknown
Speed
Unknown
Apparent Right ascension
Unknown
Apparent Declination
Unknown
Sunlit
N/A
Visualization observer readout
Local Sidereal Time
09:25:22
Azimuth
Unknown
Elevation
Unknown
Doppler factor
Unknown
Orbital elements
Apogee altitude
845.302 km
Perigee altitude
659.141 km
Semi-major axis
7,130.359 km
Eccentricity
0.01305
Inclination
59.7085°
RAAN
331.3703°
Arg. of periapsis
174.4998°
True anomaly
185.6036°
Mean anomaly
185.7511°
Eccentric anomaly
185.67711°
Mean motion
3.60476 °/min
Orbital period
99.87 mins
BSTAR
0.00010541
Loading maneuver chart data...
Computing Atmospheric mass density...
Loading historical data...
Loading historical data...
Loading historical data...
Loading historical data...
Loading historical data...
Loading historical data...
Loading historical data...
Other satellites on launch #93 in the year 1965 (1965-11-19 UTC)

Documentation

Showing up to 5 results
|